FW0213 Weather Reports


Display with metric or nautical units.
time (UTC)temp
F
wind
direction
speed
MPH
gust
MPH
rain 1hr
in
rain 24hr
in
rain mn
in
humidity
%
barometer
mb
20171211001046 30 108 0.0 2.0 0.00 0.00 0.00 83 1003.0
20171211000547 30 2 2.0 2.0 0.00 0.00 0.00 82 1003.0
20171211000047 30 2 2.0 2.0 0.00 0.00 0.00 82 1003.0
20171210235547 30 76 1.0 2.0 0.00 0.00 0.00 82 1005.0
20171210235046 30 49 2.0 2.0 0.00 0.00 0.00 82 1005.0
20171210234546 30 15 2.0 2.0 0.00 0.00 0.00 82 1005.0
20171210234046 30 21 2.0 3.0 0.00 0.00 0.00 81 1005.0
20171210233546 31 22 2.0 3.0 0.00 0.00 0.00 79 1005.0
20171210233046 31 38 3.0 3.0 0.00 0.00 0.00 78 1005.0
20171210232546 31 116 0.0 1.0 0.00 0.00 0.00 80 1005.0
20171210232046 31 56 1.0 1.0 0.00 0.00 0.00 80 1005.0
20171210231546 31 56 1.0 1.0 0.00 0.00 0.00 80 1005.0
20171210231046 30 56 1.0 1.0 0.00 0.00 0.00 77 1005.0
20171210230547 30 56 1.0 3.0 0.00 0.00 0.00 77 1005.0
20171210230047 30 51 1.0 3.0 0.00 0.00 0.00 81 1005.0
20171210225546 30 1 3.0 3.0 0.00 0.00 0.00 83 1007.0
20171210225046 29 48 2.0 2.0 0.00 0.00 0.00 82 1007.0
20171210224546 29 48 2.0 2.0 0.00 0.00 0.00 82 1007.0
20171210224046 29 30 2.0 2.0 0.00 0.00 0.00 82 1007.0
20171210223546 30 30 2.0 3.0 0.00 0.00 0.00 82 1007.0
20171210223047 29 21 2.0 3.0 0.00 0.00 0.00 82 1007.0
20171210222547 30 25 3.0 3.0 0.00 0.00 0.00 82 1007.0
20171210222047 29 52 1.0 1.0 0.00 0.00 0.00 82 1007.0
20171210221547 29 52 1.0 3.0 0.00 0.00 0.00 82 1007.0
20171210221048 29 92 0.0 3.0 0.00 0.00 0.00 83 1007.0
20171210220546 29 35 3.0 3.0 0.00 0.00 0.00 84 1007.0
20171210220047 29 51 1.0 2.0 0.00 0.00 0.00 84 1007.0
20171210215547 29 51 1.0 2.0 0.00 0.00 0.00 84 1007.0
20171210215047 29 37 2.0 5.0 0.00 0.00 0.00 84 1007.0
20171210214547 29 113 0.0 5.0 0.00 0.00 0.00 84 1007.0
20171210214047 29 13 5.0 5.0 0.00 0.00 0.00 84 1007.0
20171210213547 29 48 1.0 1.0 0.00 0.00 0.00 83 1007.0
20171210213046 29 48 1.0 2.0 0.00 0.00 0.00 83 1007.0
20171210212546 29 76 1.0 2.0 0.00 0.00 0.00 84 1007.0
20171210212046 29 23 2.0 3.0 0.00 0.00 0.00 84 1007.0
20171210211547 29 55 1.0 3.0 0.00 0.00 0.00 84 1007.0
20171210211047 29 37 3.0 3.0 0.00 0.00 0.00 84 1007.0
20171210210546 29 30 2.0 3.0 0.00 0.00 0.00 84 1007.0
20171210210046 29 25 3.0 3.0 0.00 0.00 0.00 84 1007.0
20171210205546 29 22 3.0 3.0 0.00 0.00 0.00 84 1008.0
20171210205047 29 22 3.0 3.0 0.00 0.00 0.00 84 1008.0
20171210204547 29 58 1.0 1.0 0.00 0.00 0.00 85 1008.0
20171210204047 29 58 1.0 1.0 0.00 0.00 0.00 85 1008.0
20171210203546 29 77 0.0 3.0 0.00 0.00 0.00 85 1008.0
20171210203046 29 77 0.0 3.0 0.00 0.00 0.00 85 1008.0
20171210202546 29 52 3.0 3.0 0.00 0.00 0.00 84 1008.0
20171210202047 29 22 2.0 2.0 0.00 0.00 0.00 84 1008.0
20171210201547 29 54 1.0 1.0 0.00 0.00 0.00 84 1008.0
20171210201046 29 81 0.0 2.0 0.00 0.00 0.00 84 1008.0
20171210200547 29 76 0.0 2.0 0.00 0.00 0.00 83 1008.0
20171210200047 29 25 2.0 2.0 0.00 0.00 0.00 84 1007.0
20171210195547 29 25 2.0 3.0 0.00 0.00 0.00 84 1007.0
20171210195047 29 119 0.0 6.0 0.00 0.00 0.00 84 1007.0
20171210194547 29 22 3.0 6.0 0.00 0.00 0.00 83 1007.0
20171210194047 29 22 6.0 6.0 0.00 0.00 0.00 89 1007.0
20171210193547 29 22 6.0 6.0 0.00 0.00 0.00 89 1007.0
20171210193047 30 41 2.0 2.0 0.00 0.00 0.00 88 1007.0
20171210192547 30 41 2.0 2.0 0.00 0.00 0.00 88 1007.0
20171210192047 30 76 0.0 5.0 0.00 0.00 0.00 87 1007.0
20171210191546 30 103 0.0 5.0 0.00 0.00 0.00 87 1007.0
20171210191047 30 31 5.0 5.0 0.00 0.00 0.00 86 1007.0
20171210190546 30 31 5.0 5.0 0.00 0.00 0.00 86 1007.0
20171210190047 30 41 2.0 3.0 0.00 0.00 0.00 86 1006.0
20171210185546 30 41 2.0 3.0 0.00 0.00 0.00 86 1006.0
20171210185047 30 36 3.0 3.0 0.00 0.00 0.00 86 1006.0
20171210184547 30 35 2.0 3.0 0.00 0.00 0.00 86 1006.0
20171210184047 31 76 0.0 3.0 0.00 0.00 0.00 84 1006.0
20171210183547 31 351 3.0 3.0 0.00 0.00 0.00 84 1006.0
20171210183047 31 112 1.0 1.0 0.00 0.00 0.00 83 1006.0
20171210182547 31 101 0.0 3.0 0.00 0.00 0.00 83 1006.0
20171210182047 31 63 1.0 3.0 0.00 0.00 0.00 83 1006.0
20171210181546 31 24 3.0 3.0 0.00 0.00 0.00 88 1006.0
20171210181047 32 48 1.0 2.0 0.00 0.00 0.00 88 1006.0
20171210180546 32 20 2.0 2.0 0.00 0.00 0.00 87 1006.0
20171210180047 32 76 2.0 2.0 0.00 0.00 0.00 86 1006.0
20171210175547 32 97 0.0 0.0 0.00 0.00 0.00 85 1006.0
20171210175046 32 97 0.0 0.0 0.00 0.00 0.00 85 1006.0
20171210174546 33 78 0.0 0.0 0.00 0.00 0.00 83 1006.0
20171210174047 33 78 0.0 0.0 0.00 0.00 0.00 83 1006.0
20171210173547 33 110 0.0 2.0 0.00 0.00 0.00 83 1006.0
20171210173047 33 113 0.0 2.0 0.00 0.00 0.00 82 1006.0
20171210172546 33 109 2.0 2.0 0.00 0.00 0.00 83 1006.0
20171210172046 33 109 2.0 2.0 0.00 0.00 0.00 83 1006.0
20171210171547 33 358 2.0 2.0 0.00 0.00 0.00 82 1006.0
20171210171046 33 76 0.0 2.0 0.00 0.00 0.00 82 1006.0
20171210170547 33 39 2.0 3.0 0.00 0.00 0.00 82 1006.0
20171210170047 33 76 0.0 3.0 0.00 0.00 0.00 82 1006.0
20171210165547 33 23 3.0 3.0 0.00 0.00 0.00 82 1005.0
20171210165047 33 80 0.0 2.0 0.00 0.00 0.00 82 1005.0
20171210164547 34 71 2.0 2.0 0.00 0.00 0.00 81 1005.0
20171210164047 34 23 2.0 2.0 0.00 0.00 0.00 81 1005.0
20171210163547 34 82 0.0 2.0 0.00 0.00 0.00 80 1005.0
20171210163047 34 78 0.0 2.0 0.00 0.00 0.00 80 1005.0
20171210162547 34 17 2.0 2.0 0.00 0.00 0.00 80 1005.0
20171210162046 34 103 0.0 2.0 0.00 0.00 0.00 80 1005.0
20171210161547 34 51 2.0 2.0 0.00 0.00 0.00 80 1005.0
20171210161046 34 54 1.0 3.0 0.00 0.00 0.00 79 1005.0
20171210160546 34 102 0.0 3.0 0.00 0.00 0.00 79 1005.0
20171210160046 34 28 3.0 3.0 0.00 0.00 0.00 79 1005.0
20171210155547 35 61 0.0 5.0 0.00 0.00 0.00 78 1003.0
20171210155046 35 54 0.0 5.0 0.00 0.00 0.00 78 1003.0
20171210154546 34 32 5.0 5.0 0.00 0.00 0.00 79 1003.0
20171210154046 34 32 5.0 5.0 0.00 0.00 0.00 79 1003.0
20171210153547 34 319 3.0 3.0 0.00 0.00 0.00 79 1003.0
20171210153046 34 96 1.0 3.0 0.00 0.00 0.00 79 1003.0
20171210152546 34 4 2.0 3.0 0.00 0.00 0.00 80 1003.0
20171210152047 34 34 3.0 3.0 0.00 0.00 0.00 81 1003.0
20171210151547 34 6 2.0 6.0 0.00 0.00 0.00 81 1003.0
20171210151047 34 161 0.0 6.0 0.00 0.00 0.00 81 1003.0
20171210150547 34 14 6.0 6.0 0.00 0.00 0.00 80 1003.0
20171210150048 34 109 0.0 7.0 0.00 0.00 0.00 80 1003.0
20171210145547 34 103 0.0 7.0 0.00 0.00 0.00 80 1001.0
20171210145047 34 31 7.0 7.0 0.00 0.00 0.00 80 1001.0
20171210144546 34 31 7.0 7.0 0.00 0.00 0.00 80 1001.0
20171210144046 34 117 0.0 3.0 0.00 0.00 0.00 80 1001.0
20171210143547 34 76 0.0 3.0 0.00 0.00 0.00 80 1001.0
20171210143047 34 320 3.0 3.0 0.00 0.00 0.00 81 1001.0
20171210142546 34 25 3.0 3.0 0.00 0.00 0.00 80 1001.0
20171210142047 34 109 0.0 3.0 0.00 0.00 0.00 80 1001.0
20171210141547 34 31 3.0 3.0 0.00 0.00 0.00 80 1001.0
20171210141047 34 49 1.0 1.0 0.00 0.00 0.00 79 1001.0
20171210140547 34 49 1.0 1.0 0.00 0.00 0.00 79 1001.0
20171210140046 34 114 0.0 0.0 0.00 0.00 0.00 79 1001.0
20171210135546 35 76 0.0 0.0 0.00 0.00 0.00 78 1000.0
20171210135046 35 86 0.0 0.0 0.00 0.00 0.00 78 1000.0
20171210134546 35 54 0.0 2.0 0.00 0.00 0.00 81 1000.0
20171210134046 35 54 0.0 2.0 0.00 0.00 0.00 81 1000.0
20171210133546 36 1 2.0 2.0 0.00 0.00 0.00 79 1000.0
20171210133046 36 1 2.0 2.0 0.00 0.00 0.00 79 1000.0
20171210132547 37 49 1.0 3.0 0.00 0.00 0.00 76 1000.0
20171210132047 37 49 1.0 3.0 0.00 0.00 0.00 76 1000.0
20171210131046 38 59 2.0 2.0 0.00 0.00 0.00 69 1000.0
20171210130547 38 27 0.0 2.0 0.00 0.00 0.00 69 1000.0
20171210130047 38 7 2.0 2.0 0.00 0.00 0.00 68 1000.0
20171210125546 38 161 1.0 1.0 0.00 0.00 0.00 73 998.0
20171210125047 38 131 0.0 0.0 0.00 0.00 0.00 74 998.0
20171210124547 38 140 0.0 0.0 0.00 0.00 0.00 73 998.0
20171210124047 38 144 0.0 1.0 0.00 0.00 0.00 73 998.0
20171210123546 38 131 0.0 1.0 0.00 0.00 0.00 72 998.0
20171210123047 39 47 1.0 2.0 0.00 0.00 0.00 71 998.0
20171210122547 39 117 0.0 2.0 0.00 0.00 0.00 70 998.0
20171210122046 40 10 2.0 2.0 0.00 0.00 0.00 68 998.0
20171210121547 40 10 2.0 3.0 0.00 0.00 0.00 68 998.0
20171210121047 40 128 0.0 3.0 0.00 0.00 0.00 68 998.0
20171210120547 40 125 3.0 3.0 0.00 0.00 0.00 67 998.0
20171210120047 40 125 3.0 3.0 0.00 0.00 0.00 67 998.0
20171210115547 40 108 2.0 2.0 0.00 0.00 0.00 67 997.0
20171210115046 40 158 2.0 5.0 0.00 0.00 0.00 67 997.0
20171210114547 40 124 1.0 5.0 0.00 0.00 0.00 67 997.0
20171210114047 40 226 5.0 5.0 0.00 0.00 0.00 67 997.0
20171210113546 40 141 3.0 3.0 0.00 0.00 0.00 67 997.0
20171210113047 40 154 0.0 7.0 0.00 0.00 0.00 67 997.0
20171210112547 40 154 0.0 7.0 0.00 0.00 0.00 67 997.0
20171210112046 41 190 7.0 7.0 0.00 0.00 0.00 66 997.0
20171210111546 41 190 7.0 7.0 0.00 0.00 0.00 66 997.0
20171210111047 41 150 5.0 5.0 0.00 0.00 0.00 66 997.0
20171210110547 41 158 2.0 5.0 0.00 0.00 0.00 66 997.0
20171210110047 41 119 2.0 5.0 0.00 0.00 0.00 66 997.0
20171210105547 40 140 5.0 7.0 0.00 0.00 0.00 67 996.0
20171210105047 40 132 3.0 7.0 0.00 0.00 0.00 67 996.0
20171210104547 40 247 7.0 7.0 0.00 0.00 0.00 67 996.0
20171210104047 40 247 7.0 7.0 0.00 0.00 0.00 67 996.0
20171210103546 40 196 2.0 3.0 0.00 0.00 0.00 67 996.0
20171210103047 40 202 3.0 3.0 0.00 0.00 0.00 72 996.0
20171210102547 40 202 3.0 3.0 0.00 0.00 0.00 72 996.0
20171210102047 40 163 1.0 3.0 0.00 0.00 0.00 72 996.0
20171210101546 40 157 0.0 3.0 0.00 0.00 0.00 67 996.0
20171210101046 40 226 3.0 6.0 0.00 0.00 0.00 67 996.0
20171210100547 40 161 3.0 6.0 0.00 0.00 0.00 68 996.0
20171210100047 40 225 6.0 6.0 0.00 0.00 0.00 68 996.0
20171210095548 40 132 3.0 3.0 0.00 0.00 0.00 73 995.0
20171210095047 40 162 2.0 5.0 0.00 0.00 0.00 74 995.0
20171210094546 40 162 2.0 5.0 0.00 0.00 0.00 74 995.0
20171210094048 40 204 5.0 5.0 0.00 0.00 0.00 69 995.0
20171210093547 40 204 5.0 5.0 0.00 0.00 0.00 69 995.0
20171210093047 39 137 5.0 5.0 0.00 0.00 0.00 69 995.0
20171210092547 39 116 0.0 8.0 0.00 0.00 0.00 70 995.0
20171210091547 39 164 8.0 8.0 0.00 0.00 0.00 71 995.0
20171210091047 39 152 1.0 5.0 0.00 0.00 0.00 71 995.0
20171210090547 39 25 0.0 5.0 0.00 0.00 0.00 71 995.0
20171210090046 39 154 5.0 5.0 0.00 0.00 0.00 71 994.0
20171210085547 39 154 5.0 5.0 0.00 0.00 0.00 71 994.0
20171210085047 39 132 0.0 0.0 0.00 0.00 0.00 77 994.0
20171210084547 39 135 0.0 1.0 0.00 0.00 0.00 71 994.0
20171210084047 39 113 0.0 5.0 0.00 0.00 0.00 71 994.0
20171210083547 39 105 1.0 5.0 0.00 0.00 0.00 71 994.0
20171210083047 39 151 5.0 5.0 0.00 0.00 0.00 71 994.0
20171210082547 39 123 0.0 2.0 0.00 0.00 0.00 71 994.0
20171210082047 39 76 2.0 6.0 0.00 0.00 0.00 71 994.0
20171210081547 39 76 2.0 6.0 0.00 0.00 0.00 71 994.0
20171210081046 39 99 6.0 6.0 0.00 0.00 0.00 71 995.0
20171210080546 38 120 3.0 6.0 0.00 0.00 0.00 72 995.0
20171210080110 38 121 0.0 6.0 0.00 0.00 0.00 72 995.0
20171210075548 38 159 6.0 6.0 0.00 0.00 0.00 72 994.0
20171210075046 38 150 5.0 5.0 0.00 0.00 0.00 73 994.0
20171210074547 38 115 1.0 2.0 0.00 0.00 0.00 73 994.0
20171210074047 38 150 2.0 5.0 0.00 0.00 0.00 73 994.0
20171210073547 38 124 2.0 5.0 0.00 0.00 0.00 73 994.0
20171210073047 38 197 5.0 5.0 0.00 0.00 0.00 74 994.0
20171210072547 38 119 0.0 2.0 0.00 0.00 0.00 74 994.0
20171210072047 38 146 2.0 2.0 0.00 0.00 0.00 74 994.0
20171210071547 38 76 1.0 1.0 0.00 0.00 0.00 73 994.0
20171210071047 38 81 0.0 5.0 0.00 0.00 0.00 73 994.0
20171210070547 38 135 1.0 5.0 0.00 0.00 0.00 73 994.0
20171210070046 38 101 5.0 5.0 0.00 0.00 0.00 73 994.0
20171210065546 38 159 3.0 7.0 0.00 0.00 0.00 72 994.0
20171210065049 38 113 0.0 7.0 0.00 0.00 0.00 72 994.0
20171210064547 38 137 7.0 7.0 0.00 0.00 0.00 72 994.0
20171210064047 38 76 2.0 6.0 0.00 0.00 0.00 72 994.0
20171210063546 38 143 6.0 6.0 0.00 0.00 0.00 72 994.0
20171210063047 38 131 0.0 2.0 0.00 0.00 0.00 72 994.0
20171210062547 38 120 0.0 2.0 0.00 0.00 0.00 72 994.0
20171210062046 38 71 2.0 2.0 0.00 0.00 0.00 72 994.0
20171210061547 38 71 2.0 6.0 0.00 0.00 0.00 72 994.0
20171210061047 38 226 1.0 6.0 0.00 0.00 0.00 72 994.0
20171210060547 38 193 6.0 6.0 0.00 0.00 0.00 72 994.0
20171210060047 38 151 1.0 3.0 0.00 0.00 0.00 67 995.0
20171210055546 38 151 1.0 3.0 0.00 0.00 0.00 67 995.0
20171210055047 38 203 3.0 3.0 0.00 0.00 0.00 72 995.0
20171210054547 38 128 2.0 2.0 0.00 0.00 0.00 67 995.0
20171210054047 38 128 2.0 2.0 0.00 0.00 0.00 67 995.0
20171210053547 38 128 0.0 2.0 0.00 0.00 0.00 67 995.0
20171210053047 39 131 1.0 2.0 0.00 0.00 0.00 66 995.0
20171210052546 39 163 2.0 2.0 0.00 0.00 0.00 65 995.0
20171210052047 39 138 1.0 1.0 0.00 0.00 0.00 66 995.0
20171210051547 39 138 1.0 2.0 0.00 0.00 0.00 66 995.0
20171210051047 38 119 0.0 2.0 0.00 0.00 0.00 67 995.0
20171210050547 38 162 2.0 2.0 0.00 0.00 0.00 63 995.0
20171210050046 38 191 2.0 2.0 0.00 0.00 0.00 69 995.0
20171210045547 37 145 2.0 2.0 0.00 0.00 0.00 70 995.0
20171210045047 37 145 2.0 2.0 0.00 0.00 0.00 70 995.0
20171210044547 37 109 0.0 0.0 0.00 0.00 0.00 70 995.0
20171210044047 38 113 0.0 0.0 0.00 0.00 0.00 69 995.0
20171210043547 38 113 0.0 5.0 0.00 0.00 0.00 69 995.0
20171210043047 38 153 0.0 5.0 0.00 0.00 0.00 69 995.0
20171210042547 38 123 5.0 6.0 0.00 0.00 0.00 69 995.0
20171210042047 38 130 2.0 6.0 0.00 0.00 0.00 69 995.0
20171210041547 38 202 6.0 6.0 0.00 0.00 0.00 69 995.0
20171210041046 38 121 3.0 3.0 0.00 0.00 0.00 69 995.0
20171210040549 38 125 0.0 2.0 0.00 0.00 0.00 69 995.0
20171210040048 38 119 0.0 2.0 0.00 0.00 0.00 64 995.0
20171210035547 37 137 2.0 3.0 0.00 0.00 0.00 65 996.0
20171210035051 37 137 2.0 3.0 0.00 0.00 0.00 65 996.0
20171210034547 37 136 3.0 5.0 0.00 0.00 0.00 66 996.0
20171210034047 37 213 3.0 5.0 0.00 0.00 0.00 67 996.0
20171210033548 37 164 5.0 5.0 0.00 0.00 0.00 62 996.0
20171210033047 37 164 5.0 5.0 0.00 0.00 0.00 62 996.0
20171210032547 36 114 0.0 0.0 0.00 0.00 0.00 63 996.0
20171210032047 36 114 0.0 1.0 0.00 0.00 0.00 63 996.0
20171210031547 36 114 0.0 10.0 0.00 0.00 0.00 63 996.0
20171210031047 36 164 1.0 10.0 0.00 0.00 0.00 63 996.0
20171210030547 36 157 10.0 10.0 0.00 0.00 0.00 63 996.0
20171210030047 36 217 2.0 8.0 0.00 0.00 0.00 63 996.0
20171210025547 36 162 8.0 8.0 0.00 0.00 0.00 63 997.0
20171210025047 36 162 8.0 8.0 0.00 0.00 0.00 63 997.0
20171210024547 36 150 3.0 3.0 0.00 0.00 0.00 63 997.0
20171210024047 36 149 3.0 3.0 0.00 0.00 0.00 63 997.0
20171210023547 36 201 3.0 7.0 0.00 0.00 0.00 63 997.0
20171210023047 36 130 1.0 8.0 0.00 0.00 0.00 63 997.0
20171210022547 36 160 7.0 8.0 0.00 0.00 0.00 64 997.0
20171210022047 36 210 8.0 8.0 0.00 0.00 0.00 64 997.0
20171210021546 36 119 3.0 7.0 0.00 0.00 0.00 64 997.0
20171210021048 36 139 7.0 7.0 0.00 0.00 0.00 64 997.0
20171210020547 36 139 7.0 7.0 0.00 0.00 0.00 64 997.0
20171210020048 36 155 7.0 7.0 0.00 0.00 0.00 64 997.0
20171210015548 36 141 1.0 2.0 0.00 0.00 0.00 64 998.0
20171210015047 36 158 2.0 2.0 0.00 0.00 0.00 64 998.0
20171210014547 36 299 2.0 6.0 0.00 0.00 0.00 64 998.0
20171210014048 36 194 2.0 6.0 0.00 0.00 0.00 64 998.0
20171210013547 36 163 6.0 6.0 0.00 0.00 0.00 64 998.0
20171210013047 35 103 0.0 0.0 0.00 0.00 0.00 65 998.0
20171210012547 35 103 0.0 0.0 0.00 0.00 0.00 65 998.0
20171210012047 35 154 0.0 2.0 0.00 0.00 0.00 66 998.0
20171210011548 35 154 0.0 2.0 0.00 0.00 0.00 66 998.0
20171210011047 35 233 2.0 2.0 0.00 0.00 0.00 66 998.0
20171210010547 35 134 2.0 6.0 0.00 0.00 0.00 66 998.0
20171210010047 35 134 2.0 6.0 0.00 0.00 0.00 66 998.0
20171210005547 35 158 6.0 6.0 0.00 0.00 0.00 66 1000.0
20171210005047 35 158 5.0 6.0 0.00 0.00 0.00 65 1000.0
20171210004547 35 132 0.0 6.0 0.00 0.00 0.00 65 1000.0
20171210004047 35 190 6.0 6.0 0.00 0.00 0.00 65 1000.0
20171210003547 35 114 0.0 2.0 0.00 0.00 0.00 65 1000.0
20171210003047 35 193 2.0 2.0 0.00 0.00 0.00 65 1000.0
20171210002547 35 154 1.0 1.0 0.00 0.00 0.00 65 1000.0
20171210002047 35 118 1.0 3.0 0.00 0.00 0.00 61 1000.0
20171210001548 35 118 1.0 3.0 0.00 0.00 0.00 61 1000.0